| time (UTC) | temp F | wind direction | speed MPH | gust MPH | rain 1hr in | rain 24hr in | rain mn in | humidity % | barometer mb |
| 20260508081528 | 61 | 0 | 0.0 | 2.0 | 0.00 | 0.00 | 0.00 | 82 | 1015.2 |
| 20260508080029 | 61 | 0 | 0.0 | 0.0 | 0.00 | 0.00 | 0.00 | 82 | 1016.0 |
| 20260508074529 | 61 | 0 | 0.0 | 0.0 | 0.00 | 0.00 | 0.00 | 81 | 1015.5 |
| 20260508073028 | 61 | 0 | 0.0 | 0.0 | 0.00 | 0.00 | 0.00 | 81 | 1015.1 |
| 20260508071529 | 60 | 0 | 0.0 | 0.0 | 0.00 | 0.00 | 0.00 | 81 | 1015.1 |
| 20260508070128 | 61 | 0 | 0.0 | 0.0 | 0.00 | 0.00 | 0.00 | 80 | 1015.3 |
| 20260508064533 | 61 | 0 | 0.0 | 0.0 | 0.00 | 0.00 | 0.00 | 80 | 1015.7 |
| 20260508063028 | 61 | 0 | 0.0 | 0.0 | 0.00 | 0.00 | 0.00 | 80 | 1015.8 |
| 20260508061527 | 61 | 0 | 0.0 | 0.0 | 0.00 | 0.00 | 0.00 | 79 | 1015.9 |
| 20260508060030 | 61 | 0 | 0.0 | 0.0 | 0.00 | 0.00 | 0.00 | 78 | 1015.7 |
| 20260508054529 | 61 | 0 | 0.0 | 0.0 | 0.00 | 0.00 | 0.00 | 77 | 1015.8 |
| 20260508053030 | 61 | 0 | 0.0 | 0.0 | 0.00 | 0.00 | 0.00 | 77 | 1016.0 |
| 20260508051528 | 61 | 0 | 0.0 | 0.0 | 0.00 | 0.00 | 0.00 | 76 | 1015.9 |
| 20260508050028 | 62 | 0 | 0.0 | 0.0 | 0.00 | 0.00 | 0.00 | 75 | 1016.0 |
| 20260508044529 | 62 | 0 | 0.0 | 0.0 | 0.00 | 0.00 | 0.00 | 73 | 1016.0 |
| 20260508043049 | 62 | 0 | 0.0 | 0.0 | 0.00 | 0.00 | 0.00 | 72 | 1015.8 |
| 20260508041533 | 63 | 0 | 0.0 | 0.0 | 0.00 | 0.00 | 0.00 | 72 | 1015.9 |
| 20260508040031 | 63 | 0 | 0.0 | 0.0 | 0.00 | 0.00 | 0.00 | 71 | 1015.7 |
| 20260508034530 | 64 | 0 | 0.0 | 0.0 | 0.00 | 0.00 | 0.00 | 71 | 1015.8 |
| 20260508033028 | 64 | 0 | 0.0 | 0.0 | 0.00 | 0.00 | 0.00 | 70 | 1015.7 |
| 20260508031526 | 64 | 0 | 0.0 | 1.0 | 0.00 | 0.00 | 0.00 | 69 | 1015.8 |
| 20260508030042 | 64 | 0 | 0.0 | 2.0 | 0.00 | 0.00 | 0.00 | 68 | 1015.7 |
| 20260508024533 | 65 | 0 | 0.0 | 2.0 | 0.00 | 0.00 | 0.00 | 68 | 1015.6 |
| 20260508023030 | 65 | 0 | 0.0 | 2.0 | 0.00 | 0.00 | 0.00 | 67 | 1015.6 |
| 20260508021533 | 65 | 0 | 0.0 | 2.0 | 0.00 | 0.00 | 0.00 | 66 | 1015.4 |
| 20260508020028 | 65 | 304 | 1.0 | 2.0 | 0.00 | 0.00 | 0.00 | 67 | 1015.2 |
| 20260508014529 | 66 | 304 | 0.0 | 1.0 | 0.00 | 0.00 | 0.00 | 67 | 1015.5 |
| 20260508013028 | 66 | 0 | 0.0 | 3.0 | 0.00 | 0.00 | 0.00 | 66 | 1015.3 |
| 20260508011529 | 66 | 304 | 1.0 | 4.0 | 0.00 | 0.00 | 0.00 | 66 | 1015.3 |
| 20260508010028 | 67 | 335 | 2.0 | 4.0 | 0.00 | 0.00 | 0.00 | 65 | 1015.2 |
| 20260508004531 | 67 | 342 | 2.0 | 7.0 | 0.00 | 0.00 | 0.00 | 64 | 1015.3 |
| 20260508003030 | 67 | 296 | 1.0 | 4.0 | 0.00 | 0.00 | 0.00 | 64 | 1015.1 |
| 20260508001529 | 67 | 338 | 2.0 | 6.0 | 0.00 | 0.00 | 0.00 | 64 | 1015.3 |
| 20260508000029 | 68 | 348 | 3.0 | 7.0 | 0.00 | 0.00 | 0.00 | 63 | 1015.4 |
| 20260507234536 | 68 | 267 | 2.0 | 9.0 | 0.00 | 0.00 | 0.00 | 63 | 1015.2 |
| 20260507233030 | 69 | 285 | 4.0 | 10.0 | 0.00 | 0.00 | 0.00 | 63 | 1015.1 |
| 20260507231529 | 69 | 280 | 3.0 | 10.0 | 0.00 | 0.00 | 0.00 | 62 | 1015.4 |
| 20260507230031 | 70 | 324 | 2.0 | 10.0 | 0.00 | 0.00 | 0.00 | 61 | 1015.4 |
| 20260507224528 | 72 | 213 | 1.0 | 6.0 | 0.00 | 0.00 | 0.00 | 50 | 1015.3 |
| 20260507223029 | 73 | 247 | 2.0 | 5.0 | 0.00 | 0.00 | 0.00 | 51 | 1015.4 |
| 20260507221529 | 73 | 244 | 4.0 | 8.0 | 0.00 | 0.00 | 0.00 | 49 | 1015.5 |
| 20260507220029 | 73 | 238 | 3.0 | 7.0 | 0.00 | 0.00 | 0.00 | 49 | 1015.5 |
| 20260507214527 | 74 | 218 | 3.0 | 7.0 | 0.00 | 0.00 | 0.00 | 46 | 1015.7 |
| 20260507213029 | 74 | 157 | 2.0 | 6.0 | 0.00 | 0.00 | 0.00 | 47 | 1015.8 |
| 20260507211527 | 73 | 187 | 4.0 | 9.0 | 0.00 | 0.00 | 0.00 | 45 | 1016.0 |
| 20260507210028 | 74 | 225 | 4.0 | 9.0 | 0.00 | 0.00 | 0.00 | 46 | 1016.1 |
| 20260507204530 | 75 | 194 | 2.0 | 8.0 | 0.00 | 0.00 | 0.00 | 46 | 1016.0 |
| 20260507203030 | 74 | 170 | 4.0 | 8.0 | 0.00 | 0.00 | 0.00 | 46 | 1016.2 |
| 20260507201535 | 75 | 171 | 3.0 | 8.0 | 0.00 | 0.00 | 0.00 | 47 | 1016.4 |
| 20260507200029 | 75 | 161 | 1.0 | 7.0 | 0.00 | 0.00 | 0.00 | 48 | 1016.6 |
| 20260507194532 | 74 | 13 | 1.0 | 8.0 | 0.00 | 0.00 | 0.00 | 48 | 1016.8 |
| 20260507193032 | 76 | 196 | 4.0 | 10.0 | 0.00 | 0.00 | 0.00 | 46 | 1017.0 |
| 20260507191530 | 74 | 172 | 2.0 | 10.0 | 0.00 | 0.00 | 0.00 | 47 | 1017.2 |
| 20260507190030 | 73 | 139 | 5.0 | 12.0 | 0.00 | 0.00 | 0.00 | 51 | 1017.3 |
| 20260507184529 | 72 | 194 | 6.0 | 10.0 | 0.00 | 0.00 | 0.00 | 52 | 1017.5 |
| 20260507183037 | 71 | 191 | 6.0 | 12.0 | 0.00 | 0.00 | 0.00 | 51 | 1017.7 |
| 20260507181530 | 71 | 222 | 4.0 | 9.0 | 0.00 | 0.00 | 0.00 | 53 | 1017.9 |
| 20260507180027 | 70 | 165 | 4.0 | 12.0 | 0.00 | 0.00 | 0.00 | 53 | 1018.2 |
| 20260507174534 | 70 | 220 | 4.0 | 11.0 | 0.00 | 0.00 | 0.00 | 54 | 1018.2 |
| 20260507173034 | 69 | 202 | 6.0 | 12.0 | 0.00 | 0.00 | 0.00 | 52 | 1018.5 |
| 20260507171531 | 70 | 140 | 2.0 | 9.0 | 0.00 | 0.00 | 0.00 | 54 | 1019.0 |
| 20260507170028 | 68 | 190 | 4.0 | 8.0 | 0.00 | 0.00 | 0.00 | 56 | 1019.3 |
| 20260507164528 | 67 | 148 | 3.0 | 9.0 | 0.00 | 0.00 | 0.00 | 57 | 1019.6 |
| 20260507163031 | 67 | 175 | 4.0 | 9.0 | 0.00 | 0.00 | 0.00 | 58 | 1019.9 |
| 20260507161527 | 67 | 173 | 4.0 | 9.0 | 0.00 | 0.00 | 0.00 | 58 | 1019.8 |
| 20260507160033 | 67 | 166 | 3.0 | 8.0 | 0.00 | 0.00 | 0.00 | 58 | 1019.8 |
| 20260507154530 | 67 | 173 | 1.0 | 9.0 | 0.00 | 0.10 | 0.00 | 60 | 1019.9 |
| 20260507153031 | 65 | 211 | 3.0 | 8.0 | 0.00 | 0.10 | 0.00 | 62 | 1019.9 |
| 20260507151527 | 64 | 0 | 3.0 | 7.0 | 0.00 | 0.10 | 0.00 | 64 | 1020.1 |
| 20260507150029 | 63 | 156 | 3.0 | 7.0 | 0.00 | 0.10 | 0.00 | 65 | 1020.2 |
| 20260507144528 | 62 | 142 | 3.0 | 7.0 | 0.00 | 0.10 | 0.00 | 68 | 1020.3 |
| 20260507143053 | 60 | 0 | 1.0 | 6.0 | 0.00 | 0.10 | 0.00 | 71 | 1020.2 |
| 20260507141543 | 59 | 144 | 2.0 | 6.0 | 0.00 | 0.10 | 0.00 | 75 | 1020.4 |
| 20260507140028 | 58 | 153 | 1.0 | 5.0 | 0.00 | 0.10 | 0.00 | 81 | 1020.7 |
| 20260507134529 | 56 | 113 | 1.0 | 4.0 | 0.00 | 0.10 | 0.00 | 83 | 1020.7 |
| 20260507133034 | 55 | 0 | 0.0 | 3.0 | 0.00 | 0.10 | 0.00 | 85 | 1020.7 |
| 20260507131527 | 54 | 0 | 0.0 | 5.0 | 0.00 | 0.10 | 0.00 | 86 | 1020.6 |
| 20260507130038 | 54 | 84 | 0.0 | 3.0 | 0.00 | 0.10 | 0.00 | 86 | 1020.6 |
| 20260507124527 | 53 | 0 | 0.0 | 2.0 | 0.00 | 0.10 | 0.00 | 86 | 1020.3 |
| 20260507123026 | 52 | 0 | 0.0 | 1.0 | 0.00 | 0.10 | 0.00 | 85 | 1020.4 |
| 20260507121526 | 51 | 0 | 0.0 | 0.0 | 0.00 | 0.10 | 0.00 | 85 | 1020.2 |
| 20260507120029 | 51 | 0 | 0.0 | 0.0 | 0.00 | 0.10 | 0.00 | 84 | 1019.9 |
| 20260507114531 | 51 | 0 | 0.0 | 0.0 | 0.00 | 0.10 | 0.00 | 84 | 1019.9 |
| 20260507113028 | 51 | 0 | 0.0 | 0.0 | 0.00 | 0.10 | 0.00 | 84 | 1019.6 |
| 20260507111528 | 52 | 0 | 0.0 | 4.0 | 0.00 | 0.10 | 0.00 | 84 | 1019.6 |
| 20260507083028 | 55 | 188 | 2.0 | 7.0 | 0.00 | 0.10 | 0.00 | 79 | 1018.0 |